Time,TemperatureF,DewpointF,PressureIn,WindDirection,WindDirectionDegrees,WindSpeedMPH,WindSpeedGustMPH,Humidity,HourlyPrecipIn,Conditions,Clouds,dailyrainin,SoftwareType,DateUTC
2013-06-14 00:01:00,63.0,61.0,29.51,WNW,292,14.0,-999.0,92,-99.99,,,-99.99,,2013-06-14 04:01:00,
2013-06-14 00:12:00,63.0,61.0,29.51,WNW,292,14.0,-999.0,92,-99.99,,,-99.99,,2013-06-14 04:12:00,
2013-06-14 00:23:00,60.0,57.0,29.53,NW,311,10.0,-999.0,91,-99.99,,,-99.99,,2013-06-14 04:23:00,
2013-06-14 00:33:00,60.0,57.0,29.53,NW,311,10.0,-999.0,91,-99.99,,,-99.99,,2013-06-14 04:33:00,
2013-06-14 00:43:00,60.0,58.0,29.54,WNW,296,6.0,-999.0,92,-99.99,,,-99.99,,2013-06-14 04:43:00,
2013-06-14 00:53:00,59.0,57.0,29.55,NNW,332,6.0,-999.0,93,-99.99,,,-99.99,,2013-06-14 04:53:00,
2013-06-14 01:02:00,58.0,56.0,29.55,NW,306,7.0,-999.0,94,-99.99,,,-99.99,,2013-06-14 05:02:00,
2013-06-14 01:12:00,58.0,56.0,29.55,NW,306,7.0,-999.0,94,-99.99,,,-99.99,,2013-06-14 05:12:00,
2013-06-14 01:22:00,58.0,56.0,29.56,NW,321,7.0,-999.0,94,-99.99,,,-99.99,,2013-06-14 05:22:00,
2013-06-14 01:34:00,58.0,56.0,29.57,NW,306,7.0,-999.0,94,-99.99,,,-99.99,,2013-06-14 05:34:00,
2013-06-14 01:43:00,58.0,56.0,29.57,NW,306,7.0,-999.0,94,-99.99,,,-99.99,,2013-06-14 05:43:00,
2013-06-14 01:52:00,57.0,55.0,29.58,NW,313,8.0,-999.0,94,-99.99,,,-99.99,,2013-06-14 05:52:00,
2013-06-14 02:02:00,57.0,55.0,29.58,NNW,338,7.0,-999.0,94,-99.99,,,-99.99,,2013-06-14 06:02:00,
2013-06-14 02:12:00,57.0,55.0,29.58,NNW,338,7.0,-999.0,94,-99.99,,,-99.99,,2013-06-14 06:12:00,
2013-06-14 02:22:00,57.0,55.0,29.59,NW,304,7.0,-999.0,93,-99.99,,,-99.99,,2013-06-14 06:22:00,
2013-06-14 02:33:00,56.0,54.0,29.60,WNW,301,7.0,-999.0,93,-99.99,,,-99.99,,2013-06-14 06:33:00,
2013-06-14 02:43:00,56.0,54.0,29.60,WNW,301,7.0,-999.0,93,-99.99,,,-99.99,,2013-06-14 06:43:00,
2013-06-14 02:52:00,56.0,54.0,29.62,NNW,329,6.0,-999.0,92,-99.99,,,-99.99,,2013-06-14 06:52:00,
2013-06-14 03:02:00,56.0,53.0,29.62,NNW,332,5.0,-999.0,91,-99.99,,,-99.99,,2013-06-14 07:02:00,
2013-06-14 03:12:00,56.0,53.0,29.63,NW,326,5.0,-999.0,90,-99.99,,,-99.99,,2013-06-14 07:12:00,
2013-06-14 03:22:00,56.0,53.0,29.63,NW,326,5.0,-999.0,90,-99.99,,,-99.99,,2013-06-14 07:22:00,
2013-06-14 03:33:00,56.0,53.0,29.64,WNW,282,5.0,-999.0,90,-99.99,,,-99.99,,2013-06-14 07:33:00,
2013-06-14 03:43:00,56.0,53.0,29.64,WNW,282,5.0,-999.0,90,-99.99,,,-99.99,,2013-06-14 07:43:00,
2013-06-14 03:53:00,56.0,53.0,29.64,NW,322,6.0,-999.0,89,-99.99,,,-99.99,,2013-06-14 07:53:00,
2013-06-14 04:02:00,56.0,53.0,29.65,NNW,329,7.0,-999.0,91,-99.99,,,-99.99,,2013-06-14 08:02:00,
2013-06-14 04:12:00,56.0,53.0,29.65,NNW,329,7.0,-999.0,91,-99.99,,,-99.99,,2013-06-14 08:12:00,
2013-06-14 04:23:00,55.0,53.0,29.65,NNW,327,5.0,-999.0,93,-99.99,,,-99.99,,2013-06-14 08:23:00,
2013-06-14 04:33:00,55.0,53.0,29.65,NNW,327,5.0,-999.0,93,-99.99,,,-99.99,,2013-06-14 08:33:00,
2013-06-14 04:43:00,55.0,53.0,29.65,NW,318,5.0,-999.0,94,-99.99,,,-99.99,,2013-06-14 08:43:00,
2013-06-14 04:53:00,55.0,53.0,29.65,WNW,296,5.0,-999.0,94,-99.99,,,-99.99,,2013-06-14 08:53:00,
2013-06-14 05:02:00,55.0,53.0,29.65,NW,314,5.0,-999.0,94,-99.99,,,-99.99,,2013-06-14 09:02:00,
2013-06-14 05:12:00,55.0,53.0,29.65,NW,314,5.0,-999.0,94,-99.99,,,-99.99,,2013-06-14 09:12:00,
2013-06-14 05:22:00,56.0,54.0,29.66,WNW,292,5.0,-999.0,94,-99.99,,,-99.99,,2013-06-14 09:22:00,
2013-06-14 05:33:00,56.0,54.0,29.66,WNW,292,5.0,-999.0,94,-99.99,,,-99.99,,2013-06-14 09:33:00,
2013-06-14 05:43:00,56.0,54.0,29.67,WNW,296,8.0,-999.0,94,-99.99,,,-99.99,,2013-06-14 09:43:00,
2013-06-14 05:53:00,56.0,54.0,29.67,WNW,290,7.0,-999.0,94,-99.99,,,-99.99,,2013-06-14 09:53:00,
2013-06-14 06:02:00,56.0,54.0,29.67,WNW,290,7.0,-999.0,94,-99.99,,,-99.99,,2013-06-14 10:02:00,
2013-06-14 06:12:00,56.0,54.0,29.68,WNW,286,6.0,-999.0,94,-99.99,,,-99.99,,2013-06-14 10:12:00,
2013-06-14 06:22:00,56.0,54.0,29.68,WNW,289,7.0,-999.0,94,-99.99,,,-99.99,,2013-06-14 10:22:00,
2013-06-14 06:34:00,56.0,54.0,29.68,WNW,289,7.0,-999.0,94,-99.99,,,-99.99,,2013-06-14 10:34:00,
2013-06-14 06:43:00,56.0,55.0,29.69,WNW,288,7.0,-999.0,95,-99.99,,,-99.99,,2013-06-14 10:43:00,
2013-06-14 06:53:00,56.0,55.0,29.70,WNW,296,5.0,-999.0,95,-99.99,,,-99.99,,2013-06-14 10:53:00,
2013-06-14 07:02:00,56.0,55.0,29.70,WNW,296,5.0,-999.0,95,-99.99,,,-99.99,,2013-06-14 11:02:00,
2013-06-14 07:11:00,56.0,54.0,29.71,WNW,298,5.0,-999.0,94,-99.99,,,-99.99,,2013-06-14 11:11:00,
2013-06-14 07:23:00,56.0,54.0,29.72,WNW,298,7.0,-999.0,94,-99.99,,,-99.99,,2013-06-14 11:23:00,
2013-06-14 07:33:00,56.0,54.0,29.72,WNW,289,7.0,-999.0,94,-99.99,,,-99.99,,2013-06-14 11:33:00,
2013-06-14 07:43:00,56.0,54.0,29.72,WNW,289,7.0,-999.0,94,-99.99,,,-99.99,,2013-06-14 11:43:00,
2013-06-14 07:52:00,56.0,54.0,29.73,WNW,300,6.0,-999.0,94,-99.99,,,-99.99,,2013-06-14 11:52:00,
2013-06-14 08:02:00,56.0,54.0,29.73,WNW,300,6.0,-999.0,94,-99.99,,,-99.99,,2013-06-14 12:02:00,
2013-06-14 08:12:00,56.0,54.0,29.74,WNW,296,7.0,-999.0,94,-99.99,,,-99.99,,2013-06-14 12:12:00,
2013-06-14 08:23:00,56.0,54.0,29.75,WNW,298,5.0,-999.0,94,-99.99,,,-99.99,,2013-06-14 12:23:00,
2013-06-14 08:33:00,56.0,54.0,29.75,WNW,298,5.0,-999.0,94,-99.99,,,-99.99,,2013-06-14 12:33:00,
2013-06-14 08:43:00,56.0,54.0,29.77,NW,309,6.0,-999.0,92,-99.99,,,-99.99,,2013-06-14 12:43:00,
2013-06-14 08:52:00,56.0,53.0,29.78,NNW,334,7.0,-999.0,89,-99.99,,,-99.99,,2013-06-14 12:52:00,
2013-06-14 09:02:00,56.0,53.0,29.78,NNW,334,7.0,-999.0,89,-99.99,,,-99.99,,2013-06-14 13:02:00,
2013-06-14 09:12:00,56.0,53.0,29.80,NNW,334,5.0,-999.0,90,-99.99,,,-99.99,,2013-06-14 13:12:00,
2013-06-14 09:22:00,57.0,53.0,29.80,NW,314,6.0,-999.0,88,-99.99,,,-99.99,,2013-06-14 13:22:00,
2013-06-14 09:33:00,57.0,53.0,29.80,NW,314,6.0,-999.0,88,-99.99,,,-99.99,,2013-06-14 13:33:00,
2013-06-14 09:43:00,57.0,53.0,29.80,NNW,332,5.0,-999.0,86,-99.99,,,-99.99,,2013-06-14 13:43:00,
2013-06-14 09:53:00,58.0,53.0,29.81,NNW,334,6.0,-999.0,83,-99.99,,,-99.99,,2013-06-14 13:53:00,
2013-06-14 10:02:00,58.0,53.0,29.81,NNW,334,6.0,-999.0,83,-99.99,,,-99.99,,2013-06-14 14:02:00,
2013-06-14 10:12:00,58.0,53.0,29.81,WNW,294,5.0,-999.0,82,-99.99,,,-99.99,,2013-06-14 14:12:00,
2013-06-14 10:22:00,59.0,53.0,29.82,WNW,299,8.0,-999.0,81,-99.99,,,-99.99,,2013-06-14 14:22:00,
2013-06-14 10:34:00,59.0,53.0,29.82,WNW,299,8.0,-999.0,81,-99.99,,,-99.99,,2013-06-14 14:34:00,
2013-06-14 10:43:00,60.0,53.0,29.83,NW,308,7.0,-999.0,79,-99.99,,,-99.99,,2013-06-14 14:43:00,
2013-06-14 10:52:00,61.0,53.0,29.83,NNW,336,9.0,-999.0,75,-99.99,,,-99.99,,2013-06-14 14:52:00,
2013-06-14 11:02:00,61.0,53.0,29.83,NNW,336,9.0,-999.0,75,-99.99,,,-99.99,,2013-06-14 15:02:00,
2013-06-14 11:11:00,62.0,54.0,29.83,North,355,7.0,-999.0,75,-99.99,,,-99.99,,2013-06-14 15:11:00,
2013-06-14 11:23:00,63.0,53.0,29.84,NNW,338,7.0,-999.0,69,-99.99,,,-99.99,,2013-06-14 15:23:00,
2013-06-14 11:33:00,63.0,53.0,29.84,NNW,338,7.0,-999.0,69,-99.99,,,-99.99,,2013-06-14 15:33:00,
2013-06-14 11:44:00,63.0,54.0,29.84,WNW,300,8.0,-999.0,73,-99.99,,,-99.99,,2013-06-14 15:44:00,
2013-06-14 11:53:00,63.0,53.0,29.85,NW,307,8.0,-999.0,71,-99.99,,,-99.99,,2013-06-14 15:53:00,
2013-06-14 12:01:00,63.0,53.0,29.85,NW,307,8.0,-999.0,71,-99.99,,,-99.99,,2013-06-14 16:01:00,
2013-06-14 12:11:00,64.0,55.0,29.84,NW,324,7.0,-999.0,73,-99.99,,,-99.99,,2013-06-14 16:11:00,
2013-06-14 12:23:00,65.0,56.0,29.84,WNW,296,5.0,-999.0,72,-99.99,,,-99.99,,2013-06-14 16:23:00,
2013-06-14 12:33:00,65.0,56.0,29.84,WNW,296,5.0,-999.0,72,-99.99,,,-99.99,,2013-06-14 16:33:00,
2013-06-14 12:43:00,65.0,55.0,29.84,WNW,292,7.0,-999.0,70,-99.99,,,-99.99,,2013-06-14 16:43:00,
2013-06-14 12:52:00,66.0,56.0,29.84,WNW,298,8.0,-999.0,69,-99.99,,,-99.99,,2013-06-14 16:52:00,
2013-06-14 13:02:00,66.0,56.0,29.84,WNW,298,8.0,-999.0,69,-99.99,,,-99.99,,2013-06-14 17:02:00,
2013-06-14 13:12:00,66.0,56.0,29.84,NW,307,9.0,-999.0,69,-99.99,,,-99.99,,2013-06-14 17:12:00,
2013-06-14 13:22:00,66.0,56.0,29.84,NW,307,9.0,-999.0,69,-99.99,,,-99.99,,2013-06-14 17:22:00,
2013-06-14 13:34:00,66.0,56.0,29.84,NW,307,9.0,-999.0,69,-99.99,,,-99.99,,2013-06-14 17:34:00,
2013-06-14 13:43:00,67.0,57.0,29.84,WNW,301,9.0,-999.0,71,-99.99,,,-99.99,,2013-06-14 17:43:00,
2013-06-14 13:53:00,67.0,57.0,29.84,WNW,301,9.0,-999.0,71,-99.99,,,-99.99,,2013-06-14 17:53:00,
2013-06-14 14:02:00,67.0,57.0,29.85,WNW,301,8.0,-999.0,70,-99.99,,,-99.99,,2013-06-14 18:02:00,
2013-06-14 14:11:00,67.0,57.0,29.84,West,271,7.0,-999.0,71,-99.99,,,-99.99,,2013-06-14 18:11:00,
2013-06-14 14:22:00,67.0,57.0,29.84,West,271,7.0,-999.0,71,-99.99,,,-99.99,,2013-06-14 18:22:00,
2013-06-14 14:33:00,67.0,57.0,29.84,West,271,7.0,-999.0,71,-99.99,,,-99.99,,2013-06-14 18:33:00,
2013-06-14 14:43:00,69.0,58.0,29.83,West,271,6.0,-999.0,67,-99.99,,,-99.99,,2013-06-14 18:43:00,
2013-06-14 14:52:00,69.0,58.0,29.83,West,271,6.0,-999.0,67,-99.99,,,-99.99,,2013-06-14 18:52:00,
2013-06-14 15:01:00,70.0,59.0,29.83,WNW,299,6.0,-999.0,68,-99.99,,,-99.99,,2013-06-14 19:01:00,
2013-06-14 15:11:00,70.0,57.0,29.83,WNW,296,4.0,-999.0,64,-99.99,,,-99.99,,2013-06-14 19:11:00,
2013-06-14 15:22:00,71.0,58.0,29.83,WNW,283,5.0,-999.0,64,-99.99,,,-99.99,,2013-06-14 19:22:00,
2013-06-14 15:32:00,71.0,58.0,29.83,WNW,283,5.0,-999.0,64,-99.99,,,-99.99,,2013-06-14 19:32:00,
2013-06-14 15:43:00,71.0,57.0,29.83,NW,306,4.0,-999.0,61,-99.99,,,-99.99,,2013-06-14 19:43:00,
2013-06-14 15:53:00,71.0,57.0,29.83,NW,306,4.0,-999.0,61,-99.99,,,-99.99,,2013-06-14 19:53:00,
2013-06-14 16:02:00,71.0,57.0,29.83,West,262,4.0,-999.0,62,-99.99,,,-99.99,,2013-06-14 20:02:00,
2013-06-14 16:11:00,72.0,59.0,29.83,WNW,286,4.0,-999.0,63,-99.99,,,-99.99,,2013-06-14 20:11:00,
2013-06-14 16:22:00,72.0,59.0,29.83,WNW,286,4.0,-999.0,63,-99.99,,,-99.99,,2013-06-14 20:22:00,
2013-06-14 16:33:00,72.0,57.0,29.83,West,281,3.0,-999.0,60,-99.99,,,-99.99,,2013-06-14 20:33:00,
2013-06-14 16:43:00,73.0,59.0,29.82,West,278,2.0,-999.0,61,-99.99,,,-99.99,,2013-06-14 20:43:00,
2013-06-14 16:53:00,73.0,59.0,29.82,West,278,2.0,-999.0,61,-99.99,,,-99.99,,2013-06-14 20:53:00,
2013-06-14 17:02:00,73.0,56.0,29.83,NW,315,2.0,-999.0,56,-99.99,,,-99.99,,2013-06-14 21:02:00,
2013-06-14 17:12:00,74.0,58.0,29.82,WNW,296,1.0,-999.0,58,-99.99,,,-99.99,,2013-06-14 21:12:00,
2013-06-14 17:22:00,73.0,56.0,29.82,NW,309,2.0,-999.0,56,-99.99,,,-99.99,,2013-06-14 21:22:00,
2013-06-14 17:34:00,73.0,56.0,29.82,NW,309,2.0,-999.0,56,-99.99,,,-99.99,,2013-06-14 21:34:00,
2013-06-14 17:42:00,73.0,56.0,29.82,NW,309,2.0,-999.0,56,-99.99,,,-99.99,,2013-06-14 21:42:00,
2013-06-14 17:52:00,74.0,56.0,29.83,West,276,0.0,-999.0,54,-99.99,,,-99.99,,2013-06-14 21:52:00,
2013-06-14 18:02:00,74.0,56.0,29.83,West,276,0.0,-999.0,54,-99.99,,,-99.99,,2013-06-14 22:02:00,
2013-06-14 18:12:00,74.0,56.0,29.83,WNW,300,0.0,-999.0,53,-99.99,,,-99.99,,2013-06-14 22:12:00,
2013-06-14 18:22:00,73.0,55.0,29.84,WNW,297,0.0,-999.0,54,-99.99,,,-99.99,,2013-06-14 22:22:00,
2013-06-14 18:33:00,73.0,55.0,29.84,WNW,297,0.0,-999.0,54,-99.99,,,-99.99,,2013-06-14 22:33:00,
2013-06-14 18:43:00,74.0,56.0,29.84,WNW,302,0.0,-999.0,53,-99.99,,,-99.99,,2013-06-14 22:43:00,
2013-06-14 18:53:00,73.0,57.0,29.85,WNW,290,0.0,-999.0,57,-99.99,,,-99.99,,2013-06-14 22:53:00,
2013-06-14 19:02:00,73.0,57.0,29.85,WNW,290,0.0,-999.0,57,-99.99,,,-99.99,,2013-06-14 23:02:00,
2013-06-14 19:12:00,73.0,58.0,29.85,WNW,290,0.0,-999.0,59,-99.99,,,-99.99,,2013-06-14 23:12:00,
2013-06-14 19:22:00,73.0,58.0,29.85,WNW,290,0.0,-999.0,59,-99.99,,,-99.99,,2013-06-14 23:22:00,
2013-06-14 19:33:00,72.0,57.0,29.85,WNW,300,0.0,-999.0,59,-99.99,,,-99.99,,2013-06-14 23:33:00,
2013-06-14 19:43:00,72.0,57.0,29.86,WNW,291,0.0,-999.0,59,-99.99,,,-99.99,,2013-06-14 23:43:00,
2013-06-14 19:52:00,72.0,58.0,29.86,WNW,296,0.0,-999.0,61,-99.99,,,-99.99,,2013-06-14 23:52:00,
2013-06-14 20:01:00,72.0,58.0,29.86,WNW,296,0.0,-999.0,61,-99.99,,,-99.99,,2013-06-15 00:01:00,
2013-06-14 20:12:00,71.0,58.0,29.86,WNW,296,0.0,-999.0,63,-99.99,,,-99.99,,2013-06-15 00:12:00,
2013-06-14 20:23:00,70.0,57.0,29.87,West,281,0.0,-999.0,64,-99.99,,,-99.99,,2013-06-15 00:23:00,
2013-06-14 20:34:00,70.0,57.0,29.87,West,281,0.0,-999.0,64,-99.99,,,-99.99,,2013-06-15 00:34:00,
2013-06-14 20:43:00,69.0,57.0,29.87,West,281,0.0,-999.0,65,-99.99,,,-99.99,,2013-06-15 00:43:00,
2013-06-14 20:53:00,69.0,57.0,29.87,West,281,0.0,-999.0,65,-99.99,,,-99.99,,2013-06-15 00:53:00,
2013-06-14 21:02:00,69.0,56.0,29.88,WNW,282,0.0,-999.0,63,-99.99,,,-99.99,,2013-06-15 01:02:00,
2013-06-14 21:11:00,69.0,56.0,29.88,WNW,283,0.0,-999.0,64,-99.99,,,-99.99,,2013-06-15 01:11:00,
2013-06-14 21:22:00,69.0,56.0,29.88,WNW,283,0.0,-999.0,64,-99.99,,,-99.99,,2013-06-15 01:22:00,
2013-06-14 21:33:00,69.0,57.0,29.88,WNW,283,0.0,-999.0,66,-99.99,,,-99.99,,2013-06-15 01:33:00,
2013-06-14 21:43:00,69.0,57.0,29.88,WNW,283,0.0,-999.0,66,-99.99,,,-99.99,,2013-06-15 01:43:00,
2013-06-14 21:54:00,68.0,57.0,29.89,WNW,283,0.0,-999.0,67,-99.99,,,-99.99,,2013-06-15 01:54:00,
2013-06-14 22:02:00,68.0,57.0,29.90,WNW,283,0.0,-999.0,68,-99.99,,,-99.99,,2013-06-15 02:02:00,
2013-06-14 22:12:00,67.0,56.0,29.91,WNW,282,0.0,-999.0,69,-99.99,,,-99.99,,2013-06-15 02:12:00,
2013-06-14 22:23:00,67.0,56.0,29.91,WNW,282,0.0,-999.0,69,-99.99,,,-99.99,,2013-06-15 02:23:00,
2013-06-14 22:34:00,67.0,57.0,29.92,WNW,283,0.0,-999.0,70,-99.99,,,-99.99,,2013-06-15 02:34:00,
2013-06-14 22:43:00,67.0,57.0,29.92,WNW,283,0.0,-999.0,70,-99.99,,,-99.99,,2013-06-15 02:43:00,
2013-06-14 22:53:00,67.0,57.0,29.92,WNW,283,0.0,-999.0,70,-99.99,,,-99.99,,2013-06-15 02:53:00,
2013-06-14 23:01:00,67.0,57.0,29.92,WNW,283,0.0,-999.0,70,-99.99,,,-99.99,,2013-06-15 03:01:00,
2013-06-14 23:11:00,65.0,56.0,29.93,WNW,282,0.0,-999.0,73,-99.99,,,-99.99,,2013-06-15 03:11:00,
2013-06-14 23:24:00,65.0,56.0,29.93,WNW,282,0.0,-999.0,73,-99.99,,,-99.99,,2013-06-15 03:24:00,
2013-06-14 23:32:00,65.0,56.0,29.93,WNW,283,0.0,-999.0,74,-99.99,,,-99.99,,2013-06-15 03:32:00,
2013-06-14 23:44:00,64.0,56.0,29.94,WNW,282,0.0,-999.0,75,-99.99,,,-99.99,,2013-06-15 03:44:00,
2013-06-14 23:52:00,64.0,56.0,29.94,WNW,282,0.0,-999.0,75,-99.99,,,-99.99,,2013-06-15 03:52:00,